STARLINK-36728

Last updated on Wed Mar 25 2026 00:02:05 GMT+0000 (Coordinated Universal Time)

1 67927U 26036Z 26083.50002314 -.01863416 00000+0 -55252-1 0 9992 2 67927 42.9995 161.6256 0001578 294.3873 187.9721 15.37488379 6023
UTC large
Height (km)
Speed (km/s)
/
Latitude / Longitude
Inclination (degrees)
Orbital Period (minutes)
Azimuth
Elevation
Range (km)
Doppler Factor

Next 0 passes for location: London (51.5072 / 0.1276)

Sorry there are no passes over London.